| time (UTC) | temp F | wind direction | speed MPH | gust MPH | rain 1hr in | rain 24hr in | rain mn in | humidity % | barometer mb |
| 20260904111551 | 67 | 259 | 2.0 | 7.0 | 0.00 | 0.06 | 0.00 | 76 | 1001.2 |
| 20260904110049 | 67 | 273 | 3.0 | 8.0 | 0.00 | 0.06 | 0.00 | 75 | 1001.1 |
| 20260904104547 | 68 | 238 | 4.0 | 8.0 | 0.00 | 0.06 | 0.00 | 74 | 1001.1 |
| 20260904103044 | 68 | 250 | 8.0 | 11.0 | 0.00 | 0.06 | 0.00 | 73 | 1001.2 |
| 20260904101541 | 68 | 250 | 6.0 | 11.0 | 0.00 | 0.06 | 0.00 | 71 | 1001.3 |
| 20260904100042 | 69 | 264 | 7.0 | 13.0 | 0.00 | 0.06 | 0.00 | 69 | 1000.9 |
| 20260904094542 | 70 | 245 | 9.0 | 14.0 | 0.00 | 0.06 | 0.00 | 68 | 1000.9 |
| 20260904093031 | 73 | 251 | 6.0 | 13.0 | 0.00 | 0.06 | 0.00 | 62 | 1000.9 |
| 20260904091533 | 74 | 262 | 4.0 | 7.0 | 0.00 | 0.06 | 0.00 | 57 | 1001.1 |
| 20260904090025 | 75 | 270 | 2.0 | 7.0 | 0.00 | 0.06 | 0.00 | 56 | 1000.8 |
| 20260904084523 | 75 | 304 | 2.0 | 5.0 | 0.00 | 0.06 | 0.00 | 56 | 1000.8 |
| 20260904083019 | 75 | 204 | 3.0 | 12.0 | 0.00 | 0.06 | 0.00 | 54 | 1000.5 |
| 20260904081519 | 75 | 154 | 9.0 | 20.0 | 0.00 | 0.06 | 0.00 | 54 | 1000.1 |
| 20260904080017 | 76 | 167 | 12.0 | 18.0 | 0.00 | 0.06 | 0.00 | 53 | 1000.0 |
| 20260904074515 | 76 | 175 | 13.0 | 20.0 | 0.00 | 0.06 | 0.00 | 52 | 1000.1 |
| 20260904073013 | 76 | 157 | 10.0 | 17.0 | 0.00 | 0.06 | 0.00 | 52 | 1000.0 |
| 20260904071516 | 76 | 165 | 11.0 | 20.0 | 0.00 | 0.06 | 0.00 | 52 | 1000.1 |
| 20260904070015 | 76 | 156 | 11.0 | 18.0 | 0.00 | 0.06 | 0.00 | 51 | 1000.1 |
| 20260904064508 | 76 | 150 | 8.0 | 18.0 | 0.00 | 0.06 | 0.00 | 51 | 1000.3 |
| 20260904063012 | 77 | 96 | 9.0 | 21.0 | 0.00 | 0.06 | 0.00 | 51 | 1000.3 |
| 20260904061505 | 77 | 150 | 9.0 | 20.0 | 0.00 | 0.06 | 0.00 | 49 | 1000.4 |
| 20260904060002 | 78 | 148 | 11.0 | 23.0 | 0.00 | 0.06 | 0.00 | 48 | 1000.2 |
| 20260904054600 | 78 | 158 | 10.0 | 18.0 | 0.00 | 0.06 | 0.00 | 47 | 1000.3 |
| 20260904053059 | 78 | 158 | 12.0 | 20.0 | 0.00 | 0.06 | 0.00 | 47 | 1000.4 |
| 20260904051559 | 78 | 168 | 11.0 | 21.0 | 0.00 | 0.06 | 0.00 | 47 | 1000.3 |
| 20260904050057 | 78 | 155 | 13.0 | 21.0 | 0.00 | 0.06 | 0.00 | 47 | 1000.3 |
| 20260904044554 | 78 | 132 | 11.0 | 18.0 | 0.00 | 0.06 | 0.06 | 47 | 1000.4 |
| 20260904043059 | 78 | 111 | 13.0 | 21.0 | 0.00 | 0.06 | 0.06 | 46 | 1000.4 |
| 20260904041553 | 79 | 168 | 9.0 | 17.0 | 0.00 | 0.06 | 0.06 | 45 | 1000.4 |
| 20260904040053 | 79 | 140 | 8.0 | 14.0 | 0.00 | 0.06 | 0.06 | 44 | 1000.4 |
| 20260904034552 | 79 | 193 | 6.0 | 12.0 | 0.00 | 0.06 | 0.06 | 42 | 1000.7 |
| 20260904033052 | 79 | 123 | 3.0 | 8.0 | 0.00 | 0.06 | 0.06 | 43 | 1000.5 |
| 20260904031552 | 80 | 155 | 0.0 | 5.0 | 0.00 | 0.06 | 0.06 | 39 | 1000.3 |
| 20260904030051 | 80 | 155 | 1.0 | 5.0 | 0.00 | 0.06 | 0.06 | 38 | 1000.2 |
| 20260904024559 | 79 | 155 | 1.0 | 3.0 | 0.00 | 0.06 | 0.06 | 40 | 1000.0 |
| 20260904023050 | 79 | 155 | 0.0 | 2.0 | 0.00 | 0.06 | 0.06 | 45 | 999.8 |
| 20260904021554 | 79 | 155 | 2.0 | 3.0 | 0.00 | 0.06 | 0.06 | 47 | 999.6 |
| 20260904020049 | 80 | 247 | 0.0 | 1.0 | 0.00 | 0.06 | 0.06 | 43 | 999.5 |
| 20260904014553 | 80 | 247 | 0.0 | 0.0 | 0.00 | 0.06 | 0.06 | 43 | 999.3 |
| 20260904013107 | 80 | 247 | 0.0 | 1.0 | 0.00 | 0.06 | 0.06 | 44 | 999.3 |
| 20260904011548 | 80 | 247 | 1.0 | 2.0 | 0.00 | 0.06 | 0.06 | 45 | 999.2 |
| 20260904010046 | 81 | 247 | 1.0 | 3.0 | 0.00 | 0.06 | 0.06 | 46 | 999.1 |
| 20260904004546 | 83 | 247 | 0.0 | 2.0 | 0.00 | 0.06 | 0.06 | 43 | 999.0 |
| 20260904003046 | 82 | 246 | 1.0 | 3.0 | 0.00 | 0.06 | 0.06 | 42 | 998.9 |
| 20260904001600 | 82 | 247 | 2.0 | 4.0 | 0.00 | 0.06 | 0.06 | 44 | 998.9 |
| 20260904000044 | 82 | 225 | 2.0 | 5.0 | 0.00 | 0.06 | 0.06 | 45 | 999.0 |
| 20260903234544 | 83 | 272 | 1.0 | 5.0 | 0.00 | 0.06 | 0.06 | 44 | 999.0 |
| 20260903233045 | 81 | 229 | 3.0 | 7.0 | 0.00 | 0.06 | 0.06 | 47 | 999.0 |
| 20260903231543 | 81 | 254 | 4.0 | 11.0 | 0.00 | 0.06 | 0.06 | 49 | 999.1 |
| 20260903230041 | 81 | 273 | 7.0 | 10.0 | 0.00 | 0.06 | 0.06 | 48 | 999.2 |
| 20260903224542 | 82 | 300 | 5.0 | 10.0 | 0.00 | 0.06 | 0.06 | 50 | 999.3 |
| 20260903223042 | 80 | 262 | 2.0 | 4.0 | 0.00 | 0.06 | 0.06 | 49 | 999.6 |
| 20260903221539 | 78 | 257 | 2.0 | 5.0 | 0.00 | 0.06 | 0.06 | 50 | 999.5 |
| 20260903220038 | 77 | 250 | 3.0 | 6.0 | 0.00 | 0.06 | 0.06 | 50 | 999.4 |
| 20260903214539 | 77 | 293 | 3.0 | 6.0 | 0.00 | 0.06 | 0.06 | 54 | 999.5 |
| 20260903213048 | 75 | 313 | 5.0 | 9.0 | 0.04 | 0.06 | 0.06 | 57 | 999.6 |
| 20260903211536 | 75 | 328 | 7.0 | 14.0 | 0.06 | 0.06 | 0.06 | 59 | 999.8 |
| 20260903210037 | 74 | 159 | 7.0 | 18.0 | 0.06 | 0.06 | 0.06 | 61 | 999.7 |
| 20260903204539 | 73 | 167 | 8.0 | 18.0 | 0.06 | 0.06 | 0.06 | 69 | 999.5 |
| 20260903203029 | 77 | 191 | 14.0 | 22.0 | 0.01 | 0.01 | 0.01 | 55 | 999.7 |
| 20260903201529 | 80 | 155 | 11.0 | 22.0 | 0.00 | 0.00 | 0.00 | 46 | 999.9 |
| 20260903200028 | 83 | 165 | 7.0 | 13.0 | 0.00 | 0.00 | 0.00 | 42 | 999.9 |
| 20260903194526 | 85 | 161 | 8.0 | 14.0 | 0.00 | 0.00 | 0.00 | 37 | 1000.0 |
| 20260903193025 | 89 | 282 | 1.0 | 13.0 | 0.00 | 0.00 | 0.00 | 32 | 1000.2 |
| 20260903191535 | 89 | 299 | 4.0 | 11.0 | 0.00 | 0.00 | 0.00 | 32 | 1000.1 |
| 20260903190023 | 90 | 255 | 1.0 | 9.0 | 0.00 | 0.00 | 0.00 | 31 | 1000.4 |
| 20260903184519 | 89 | 288 | 2.0 | 13.0 | 0.00 | 0.00 | 0.00 | 32 | 1000.8 |
| 20260903183025 | 88 | 329 | 2.0 | 12.0 | 0.00 | 0.00 | 0.00 | 33 | 1001.0 |
| 20260903181515 | 88 | 311 | 3.0 | 13.0 | 0.00 | 0.00 | 0.00 | 35 | 1001.3 |
| 20260903180024 | 88 | 311 | 6.0 | 12.0 | 0.00 | 0.00 | 0.00 | 36 | 1001.6 |
| 20260903174513 | 88 | 302 | 9.0 | 14.0 | 0.00 | 0.00 | 0.00 | 36 | 1001.8 |
| 20260903173011 | 87 | 290 | 7.0 | 13.0 | 0.00 | 0.00 | 0.00 | 38 | 1002.1 |
| 20260903171509 | 87 | 279 | 7.0 | 14.0 | 0.00 | 0.00 | 0.00 | 38 | 1002.2 |
| 20260903170009 | 86 | 304 | 7.0 | 14.0 | 0.00 | 0.00 | 0.00 | 38 | 1002.3 |
| 20260903164503 | 85 | 232 | 7.0 | 16.0 | 0.00 | 0.00 | 0.00 | 40 | 1002.4 |
| 20260903163135 | 85 | 275 | 7.0 | 13.0 | 0.00 | 0.00 | 0.00 | 41 | 1002.3 |
| 20260903161600 | 84 | 233 | 8.0 | 15.0 | 0.00 | 0.00 | 0.00 | 42 | 1002.1 |
| 20260903160057 | 83 | 260 | 11.0 | 17.0 | 0.00 | 0.00 | 0.00 | 43 | 1002.2 |
| 20260903154554 | 82 | 243 | 10.0 | 16.0 | 0.00 | 0.00 | 0.00 | 45 | 1002.1 |
| 20260903153053 | 82 | 217 | 10.0 | 18.0 | 0.00 | 0.00 | 0.00 | 45 | 1002.2 |
| 20260903151552 | 81 | 203 | 9.0 | 16.0 | 0.00 | 0.00 | 0.00 | 46 | 1002.0 |
| 20260903150055 | 82 | 221 | 10.0 | 15.0 | 0.00 | 0.00 | 0.00 | 45 | 1002.2 |
| 20260903144551 | 81 | 254 | 9.0 | 14.0 | 0.00 | 0.00 | 0.00 | 47 | 1002.4 |
| 20260903143047 | 80 | 219 | 8.0 | 11.0 | 0.00 | 0.00 | 0.00 | 48 | 1002.3 |
| 20260903141541 | 78 | 211 | 6.0 | 12.0 | 0.00 | 0.00 | 0.00 | 51 | 1002.3 |
| 20260903140040 | 77 | 233 | 9.0 | 14.0 | 0.00 | 0.00 | 0.00 | 52 | 1002.2 |
| 20260903134539 | 76 | 190 | 8.0 | 13.0 | 0.00 | 0.00 | 0.00 | 54 | 1002.2 |
| 20260903133047 | 75 | 175 | 7.0 | 11.0 | 0.00 | 0.00 | 0.00 | 56 | 1002.1 |
| 20260903131539 | 74 | 192 | 6.0 | 13.0 | 0.00 | 0.00 | 0.00 | 56 | 1002.0 |
| 20260903130038 | 74 | 169 | 7.0 | 15.0 | 0.00 | 0.00 | 0.00 | 56 | 1001.6 |
| 20260903124538 | 74 | 179 | 9.0 | 15.0 | 0.00 | 0.00 | 0.00 | 56 | 1001.4 |
| 20260903123036 | 74 | 169 | 10.0 | 16.0 | 0.00 | 0.00 | 0.00 | 56 | 1001.3 |
| 20260903121547 | 75 | 171 | 9.0 | 16.0 | 0.00 | 0.00 | 0.00 | 55 | 1001.2 |
| 20260903120044 | 75 | 178 | 9.0 | 17.0 | 0.00 | 0.00 | 0.00 | 55 | 1001.2 |
| 20260903114536 | 74 | 179 | 10.0 | 16.0 | 0.00 | 0.00 | 0.00 | 56 | 1001.1 |
| 20260903113031 | 74 | 160 | 11.0 | 14.0 | 0.00 | 0.00 | 0.00 | 56 | 1000.9 |